Location: ?????????
(54.7630°N, 39.4991°E)
Time: 15:10:02
(UTC+00:00)

Cosmos 1869 Rocket - Pass Details

Date: 14 April 2026
Orbit: 598 x 625 km, 82.5° (Epoch: 16 May)

Event Time Altitude Azimuth Distance (km) Brightness Sun altitude
Rises 18:00:28 0° 198° (SSW) 2,874 6.8 -13.1°
Reaches altitude 10° 18:02:42 10° 202° (SSW) 1,978 6.0 -13.3°
Maximum altitude 18:07:03 65° 285° (WNW) 686 4.0 -13.8°
Drops below altitude 10° 18:11:29 10° 7° (N) 2,008 6.6 -14.3°
Sets 18:13:45 0° 11° (N) 2,922 7.5 -14.5°
